This demonstration page uses our WeatherBlox Daily Observations layout. Learn more.

Left ArrowRight Arrow

41.55636, -103.73856

Hourly Observations for November 24, 2019

Temp ( °F °C ) Dew Point ( °F °C ) Humidity (%) Winds ( mph kmh ) Pressure ( in mb ) Visibility ( mi km ) Precip ( " mm )
12:58 am 00:58 Clear 38 3.2 20 -6.5 49 49 WNW 10 17 30.11 1020 10 16 N/A
1:58 am 01:58 Clear 39 4.1 20 -6.7 46 46 WNW 13 20 30.11 1020 10 16 N/A
2:58 am 02:58 Clear 39 3.8 20 -6.7 47 47 NW 14 22 30.09 1019 10 16 N/A
3:58 am 03:58 Partly Cloudy 37 2.7 21 -6.2 52 52 NW 9 15 30.07 1018 10 16 N/A
4:58 am 04:58 Clear 36 2 21 -6.2 55 55 W 8 13 30.06 1018 10 16 N/A
5:58 am 05:58 Clear 36 2.1 20 -6.6 53 53 W 10 17 30.04 1017 10 16 N/A
6:58 am 06:58 Clear 34 1 19 -7.1 55 55 W 8 13 30.04 1017 10 16 N/A
7:58 am 07:58 Clear 32 0.2 19 -7.2 58 58 WSW 8 13 30.00 1016 10 16 N/A
8:58 am 08:58 Clear 36 2 19 -7.4 50 50 WSW 10 17 29.97 1015 10 16 N/A
9:58 am 09:58 Clear 38 3.6 18 -7.8 43 43 W 6 9 29.94 1014 10 16 N/A
10:58 am 10:58 Clear 42 5.8 15 -9.7 32 32 WNW 13 20 29.92 1013 10 16 N/A
11:58 am 11:58 Clear 35 1.7 14 -9.8 43 43 W 10 17 29.94 1014 10 16 N/A
12:58 pm 12:58 Mostly Cloudy 37 2.8 14 -10 39 39 W 12 19 29.92 1013 10 16 N/A
1:58 pm 13:58 Partly Cloudy 39 4.1 13 -10.6 34 34 WNW 10 17 29.91 1013 10 16 N/A
2:58 pm 14:58 Sunny 44 6.9 11 -11.5 26 26 W 14 22 29.88 1012 10 16 N/A
3:58 pm 15:58 Sunny 46 7.8 14 -10.1 27 27 W 10 17 29.88 1012 10 16 N/A
4:58 pm 16:58 Sunny 53 11.4 13 -10.5 21 21 WNW 24 39 29.85 1011 10 16 N/A
5:59 pm 17:59 Sunny 56 13.1 12 -11.1 18 18 WNW 28 44 29.80 1009 10 16 N/A
6:58 pm 18:58 Sunny 57 13.7 9 -12.7 15 15 WNW 30 48 29.78 1008 10 16 N/A
7:58 pm 19:58 Sunny 57 13.9 10 -12 15 15 WNW 29 46 29.75 1008 10 16 N/A
8:58 pm 20:58 Sunny 58 14.5 10 -12 15 15 NW 26 43 29.71 1006 10 16 N/A
9:58 pm 21:58 Sunny 55 12.5 11 -11.9 17 17 NW 20 31 29.72 1007 10 16 N/A
10:58 pm 22:58 Mostly Sunny 51 10.7 12 -11.1 21 21 WNW 20 31 29.72 1007 10 16 N/A
11:58 pm 23:58 Mostly Cloudy 50 9.9 12 -11.1 22 22 WSW 9 15 29.73 1007 10 16 N/A

Powered by AerisWeather